FW1340 Weather Reports


Display with metric or nautical units.
time (UTC)temp
F
wind
direction
speed
MPH
gust
MPH
rain 1hr
in
rain 24hr
in
rain mn
in
humidity
%
barometer
mb
20260901010042 71 248 0.0 0.0 0.00 0.00 0.00 58 1011.1
20260901004541 73 267 0.0 0.0 0.00 0.00 0.00 57 1011.1
20260901003043 73 269 0.0 0.0 0.00 0.00 0.00 56 1011.2
20260901001550 74 276 0.0 0.0 0.00 0.00 0.00 55 1011.2
20260901000044 75 263 0.0 0.0 0.00 0.00 0.00 54 1011.2
20260831234547 75 279 0.0 0.0 0.00 0.00 0.00 53 1011.1
20260831233044 76 268 0.0 0.0 0.00 0.00 0.00 52 1011.2
20260831231535 77 274 0.0 0.0 0.00 0.00 0.00 50 1011.2
20260831230034 77 246 0.0 0.0 0.00 0.00 0.00 50 1011.3
20260831224534 78 262 0.0 0.0 0.00 0.00 0.00 50 1011.4
20260831223034 78 236 0.0 0.0 0.00 0.00 0.00 49 1011.5
20260831221532 78 252 0.0 0.0 0.00 0.00 0.00 50 1011.5
20260831220034 78 266 0.0 0.0 0.00 0.00 0.00 51 1011.7
20260831214535 79 263 0.0 0.0 0.00 0.00 0.00 49 1011.7
20260831213037 80 309 0.0 0.0 0.00 0.00 0.00 48 1011.9
20260831211528 79 234 0.0 0.0 0.00 0.00 0.00 46 1012.1
20260831210025 78 200 0.0 0.0 0.00 0.00 0.00 47 1012.0
20260831204522 78 221 0.0 0.0 0.00 0.00 0.00 48 1012.1
20260831203019 77 263 0.0 0.0 0.00 0.00 0.00 50 1012.3
20260831201517 76 241 0.0 0.0 0.00 0.00 0.00 51 1012.3
20260831200021 75 254 0.0 0.0 0.00 0.00 0.00 53 1012.5
20260831194515 74 261 0.0 0.0 0.00 0.00 0.00 52 1012.7
20260831193009 74 255 0.0 0.0 0.00 0.00 0.00 55 1012.8
20260831191504 73 293 0.0 0.0 0.00 0.00 0.00 57 1013.0
20260831190005 72 265 0.0 0.0 0.00 0.00 0.00 59 1013.0
20260831184628 71 238 0.0 0.0 0.00 0.00 0.00 59 1013.1
20260831183103 70 272 0.0 0.0 0.00 0.00 0.00 60 1013.2
20260831181551 69 238 0.0 0.0 0.00 0.00 0.00 64 1013.1
20260831180048 68 260 0.0 0.0 0.00 0.00 0.00 66 1013.2
20260831174549 67 267 0.0 0.0 0.00 0.00 0.00 68 1013.2
20260831173054 67 248 0.0 0.0 0.00 0.00 0.00 68 1013.1
20260831171539 66 273 0.0 0.0 0.00 0.00 0.00 69 1013.0
20260831170037 66 273 0.0 0.0 0.00 0.00 0.00 69 1012.8
20260831164537 65 249 0.0 0.0 0.00 0.00 0.00 71 1012.8
20260831163031 65 261 0.0 0.0 0.00 0.00 0.00 73 1012.8
20260831161527 64 252 0.0 0.0 0.00 0.00 0.00 75 1012.8
20260831160029 63 275 0.0 0.0 0.00 0.00 0.00 77 1012.8
20260831154521 62 277 0.0 0.0 0.00 0.00 0.00 79 1012.7
20260831153016 61 269 0.0 0.0 0.00 0.00 0.00 81 1012.8
20260831151515 59 259 0.0 0.0 0.00 0.00 0.00 84 1012.7
20260831150014 58 277 0.0 0.0 0.00 0.00 0.00 87 1012.6
20260831144517 56 295 0.0 0.0 0.00 0.00 0.00 90 1012.3
20260831143005 53 74 0.0 0.0 0.00 0.00 0.00 90 1012.2
20260831141501 52 74 0.0 0.0 0.00 0.00 0.00 88 1012.0
20260831140056 51 74 0.0 0.0 0.00 0.00 0.00 85 1011.8
20260831134558 53 305 0.0 0.0 0.00 0.00 0.00 83 1011.6
20260831133049 53 305 0.0 0.0 0.00 0.00 0.00 83 1011.4
20260831131547 54 305 0.0 0.0 0.00 0.00 0.00 84 1011.3
20260831130049 54 296 0.0 0.0 0.00 0.00 0.00 85 1011.4
20260831124542 55 315 0.0 0.0 0.00 0.00 0.00 85 1011.1
20260831123039 55 291 0.0 0.0 0.00 0.00 0.00 85 1011.0
20260831121538 55 284 0.0 0.0 0.00 0.00 0.00 84 1010.9
20260831120037 55 273 0.0 0.0 0.00 0.00 0.00 84 1010.9
20260831114535 55 294 0.0 0.0 0.00 0.00 0.00 83 1010.8
20260831113032 56 13 0.0 0.0 0.00 0.00 0.00 80 1010.7
20260831111539 57 13 0.0 0.0 0.00 0.00 0.00 79 1010.7
20260831110027 57 13 0.0 0.0 0.00 0.00 0.00 80 1010.7
20260831104530 57 13 0.0 0.0 0.00 0.00 0.00 81 1010.8
20260831103024 57 13 0.0 0.0 0.00 0.00 0.00 82 1010.6
20260831101524 57 13 0.0 0.0 0.00 0.00 0.00 82 1010.6
20260831100021 57 19 0.0 0.0 0.00 0.00 0.00 82 1010.6
20260831094525 58 17 0.0 0.0 0.00 0.00 0.00 80 1010.4
20260831093017 58 12 0.0 0.0 0.00 0.00 0.00 80 1010.4
20260831091517 59 9 0.0 0.0 0.00 0.00 0.00 80 1010.6
20260831090016 59 116 0.0 0.0 0.00 0.00 0.00 79 1010.4
20260831084525 59 116 0.0 0.0 0.00 0.00 0.00 79 1010.5
20260831083009 60 143 0.0 0.0 0.00 0.00 0.00 76 1010.5
20260831081516 60 143 0.0 0.0 0.00 0.00 0.00 77 1010.7
20260831080005 61 143 0.0 0.0 0.00 0.00 0.00 76 1010.7
20260831074517 61 142 0.0 0.0 0.00 0.00 0.00 76 1010.8
20260831073001 61 142 0.0 0.0 0.00 0.00 0.00 77 1010.7
20260831071601 61 190 0.0 0.0 0.00 0.00 0.00 75 1010.7
20260831070058 61 93 0.0 0.0 0.00 0.00 0.00 74 1010.7
20260831064607 63 96 0.0 0.0 0.00 0.00 0.00 71 1010.7
20260831063057 64 272 0.0 0.0 0.00 0.00 0.00 71 1010.6
20260831061556 65 261 0.0 0.0 0.00 0.00 0.00 71 1010.6
20260831060104 65 268 0.0 0.0 0.00 0.00 0.00 70 1010.5
20260831054554 66 270 0.0 0.0 0.00 0.00 0.00 69 1010.6
20260831053054 66 260 0.0 0.0 0.00 0.00 0.00 68 1010.6
20260831051554 67 257 0.0 0.0 0.00 0.00 0.00 67 1010.6
20260831050126 68 265 0.0 0.0 0.00 0.00 0.00 66 1010.6
20260831044553 69 264 0.0 0.0 0.00 0.00 0.00 63 1010.6
20260831043051 70 257 0.0 0.0 0.00 0.00 0.00 61 1010.5
20260831041552 71 264 0.0 0.0 0.00 0.00 0.00 59 1010.5
20260831040054 72 269 0.0 0.0 0.00 0.00 0.00 57 1010.3
20260831034551 73 263 0.0 0.0 0.00 0.00 0.00 54 1010.3
20260831033050 75 258 0.0 0.0 0.00 0.00 0.00 51 1010.1
20260831031553 76 271 0.0 0.0 0.00 0.00 0.00 47 1010.0
20260831030054 78 250 0.0 0.0 0.00 0.00 0.00 45 1009.8
20260831024548 79 267 0.0 0.0 0.00 0.00 0.00 44 1009.7
20260831023047 81 263 0.0 0.0 0.00 0.00 0.00 42 1009.7
20260831021547 83 253 0.0 0.0 0.00 0.00 0.00 41 1009.6
20260831020046 85 281 0.0 0.0 0.00 0.00 0.00 38 1009.5
20260831014550 86 294 0.0 0.0 0.00 0.00 0.00 37 1009.5
20260831013045 87 276 0.0 0.0 0.00 0.00 0.00 35 1009.4
20260831011544 88 265 0.0 0.0 0.00 0.00 0.00 34 1009.5